Time,TemperatureF,DewpointF,PressureIn,WindDirection,WindDirectionDegrees,WindSpeedMPH,WindSpeedGustMPH,Humidity,HourlyPrecipIn,Conditions,Clouds,dailyrainin,SoftwareType,DateUTC
2013-02-25 00:01:00,37.0,-4.0,-100.00,SE,141,2.0,7.0,17,-99.99,,,-99.99,,2013-02-25 08:01:00,
2013-02-25 00:11:00,37.0,-3.0,-100.00,SE,140,1.0,4.0,18,-99.99,,,-99.99,,2013-02-25 08:11:00,
2013-02-25 00:21:00,37.0,-3.0,-100.00,NE,41,2.0,8.0,18,-99.99,,,-99.99,,2013-02-25 08:21:00,
2013-02-25 00:31:00,37.0,-3.0,-100.00,ENE,69,2.0,9.0,18,-99.99,,,-99.99,,2013-02-25 08:31:00,
2013-02-25 00:41:00,37.0,-3.0,-100.00,ENE,68,3.0,9.0,18,-99.99,,,-99.99,,2013-02-25 08:41:00,
2013-02-25 00:52:00,37.0,-3.0,-100.00,ENE,61,5.0,11.0,18,-99.99,,,-99.99,,2013-02-25 08:52:00,
2013-02-25 01:01:00,37.0,-3.0,-100.00,NE,52,3.0,10.0,18,-99.99,,,-99.99,,2013-02-25 09:01:00,
2013-02-25 01:12:00,37.0,-1.0,-100.00,North,8,2.0,7.0,19,-99.99,,,-99.99,,2013-02-25 09:12:00,
2013-02-25 01:21:00,37.0,-1.0,-100.00,NNE,29,3.0,10.0,19,-99.99,,,-99.99,,2013-02-25 09:21:00,
2013-02-25 01:31:00,37.0,-1.0,-100.00,NNW,348,2.0,8.0,19,-99.99,,,-99.99,,2013-02-25 09:31:00,
2013-02-25 01:41:00,37.0,-1.0,-100.00,NE,47,4.0,9.0,19,-99.99,,,-99.99,,2013-02-25 09:41:00,
2013-02-25 01:51:00,37.0,-3.0,-100.00,NE,46,5.0,11.0,18,-99.99,,,-99.99,,2013-02-25 09:51:00,
2013-02-25 02:01:00,38.0,-2.0,-100.00,NNE,25,4.0,11.0,18,-99.99,,,-99.99,,2013-02-25 10:01:00,
2013-02-25 02:11:00,38.0,-2.0,-100.00,North,1,6.0,11.0,18,-99.99,,,-99.99,,2013-02-25 10:11:00,
2013-02-25 02:21:00,38.0,-2.0,-100.00,NNE,24,8.0,12.0,18,-99.99,,,-99.99,,2013-02-25 10:21:00,
2013-02-25 02:31:00,36.0,-1.0,-100.00,ESE,120,1.0,3.0,20,-99.99,,,-99.99,,2013-02-25 10:31:00,
2013-02-25 02:41:00,37.0,0.0,-100.00,ENE,64,4.0,8.0,20,-99.99,,,-99.99,,2013-02-25 10:41:00,
2013-02-25 02:52:00,36.0,-1.0,-100.00,NE,55,3.0,9.0,20,-99.99,,,-99.99,,2013-02-25 10:52:00,
2013-02-25 03:01:00,37.0,-3.0,-100.00,NNE,21,8.0,12.0,18,-99.99,,,-99.99,,2013-02-25 11:01:00,
2013-02-25 03:11:00,38.0,-2.0,-100.00,North,2,7.0,13.0,18,-99.99,,,-99.99,,2013-02-25 11:11:00,
2013-02-25 03:21:00,37.0,0.0,-100.00,ENE,75,2.0,7.0,20,-99.99,,,-99.99,,2013-02-25 11:21:00,
2013-02-25 03:32:00,36.0,0.0,-100.00,ESE,102,2.0,4.0,21,-99.99,,,-99.99,,2013-02-25 11:32:00,
2013-02-25 03:42:00,36.0,-1.0,-100.00,East,101,1.0,4.0,20,-99.99,,,-99.99,,2013-02-25 11:42:00,
2013-02-25 03:52:00,36.0,-1.0,-100.00,NE,47,2.0,6.0,20,-99.99,,,-99.99,,2013-02-25 11:52:00,
2013-02-25 04:01:00,37.0,-1.0,-100.00,SW,220,1.0,3.0,19,-99.99,,,-99.99,,2013-02-25 12:01:00,
2013-02-25 04:11:00,37.0,-1.0,-100.00,WNW,299,2.0,5.0,19,-99.99,,,-99.99,,2013-02-25 12:11:00,
2013-02-25 04:21:00,37.0,-1.0,-100.00,NNE,15,2.0,4.0,19,-99.99,,,-99.99,,2013-02-25 12:21:00,
2013-02-25 04:32:00,37.0,-3.0,-100.00,NNE,26,4.0,7.0,18,-99.99,,,-99.99,,2013-02-25 12:32:00,
2013-02-25 04:41:00,37.0,-3.0,-100.00,NE,49,1.0,5.0,18,-99.99,,,-99.99,,2013-02-25 12:41:00,
2013-02-25 04:53:00,37.0,-1.0,-100.00,ENE,67,2.0,7.0,19,-99.99,,,-99.99,,2013-02-25 12:53:00,
2013-02-25 05:01:00,37.0,-3.0,-100.00,NE,47,5.0,10.0,18,-99.99,,,-99.99,,2013-02-25 13:01:00,
2013-02-25 05:12:00,37.0,-3.0,-100.00,NE,47,5.0,10.0,18,-99.99,,,-99.99,,2013-02-25 13:12:00,
2013-02-25 05:21:00,37.0,-1.0,-100.00,NE,38,4.0,8.0,19,-99.99,,,-99.99,,2013-02-25 13:21:00,
2013-02-25 05:31:00,37.0,-3.0,-100.00,NE,38,5.0,9.0,18,-99.99,,,-99.99,,2013-02-25 13:31:00,
2013-02-25 05:42:00,37.0,-3.0,-100.00,NE,48,3.0,7.0,18,-99.99,,,-99.99,,2013-02-25 13:42:00,
2013-02-25 05:51:00,37.0,-3.0,-100.00,NE,56,8.0,14.0,18,-99.99,,,-99.99,,2013-02-25 13:51:00,
2013-02-25 06:02:00,38.0,-2.0,-100.00,ENE,58,10.0,16.0,18,-99.99,,,-99.99,,2013-02-25 14:02:00,
2013-02-25 06:14:00,38.0,-2.0,-100.00,ENE,58,8.0,17.0,18,-99.99,,,-99.99,,2013-02-25 14:14:00,
2013-02-25 06:21:00,38.0,-2.0,-100.00,ENE,59,8.0,15.0,18,-99.99,,,-99.99,,2013-02-25 14:21:00,
2013-02-25 06:31:00,38.0,-2.0,-100.00,NE,51,8.0,13.0,18,-99.99,,,-99.99,,2013-02-25 14:31:00,
2013-02-25 06:41:00,37.0,-3.0,-100.00,ENE,57,6.0,12.0,18,-99.99,,,-99.99,,2013-02-25 14:41:00,
2013-02-25 06:52:00,38.0,-2.0,-100.00,ENE,60,8.0,12.0,18,-99.99,,,-99.99,,2013-02-25 14:52:00,
2013-02-25 07:02:00,38.0,-2.0,-100.00,ENE,65,8.0,12.0,18,-99.99,,,-99.99,,2013-02-25 15:02:00,
2013-02-25 07:11:00,38.0,-2.0,-100.00,ENE,61,8.0,14.0,18,-99.99,,,-99.99,,2013-02-25 15:11:00,
2013-02-25 07:21:00,38.0,-2.0,-100.00,ENE,57,9.0,14.0,18,-99.99,,,-99.99,,2013-02-25 15:21:00,
2013-02-25 07:32:00,39.0,-2.0,-100.00,NE,51,11.0,16.0,17,-99.99,,,-99.99,,2013-02-25 15:32:00,
2013-02-25 07:41:00,39.0,-2.0,-100.00,NE,51,11.0,16.0,17,-99.99,,,-99.99,,2013-02-25 15:41:00,
2013-02-25 07:51:00,40.0,-1.0,-100.00,NE,53,12.0,18.0,17,-99.99,,,-99.99,,2013-02-25 15:51:00,
2013-02-25 08:01:00,40.0,-1.0,-100.00,NE,51,12.0,17.0,17,-99.99,,,-99.99,,2013-02-25 16:01:00,
2013-02-25 08:11:00,41.0,0.0,-100.00,NE,51,10.0,15.0,17,-99.99,,,-99.99,,2013-02-25 16:11:00,
2013-02-25 08:21:00,41.0,0.0,-100.00,ENE,60,12.0,20.0,17,-99.99,,,-99.99,,2013-02-25 16:21:00,
2013-02-25 08:31:00,41.0,0.0,-100.00,ENE,58,11.0,18.0,17,-99.99,,,-99.99,,2013-02-25 16:31:00,
2013-02-25 08:41:00,41.0,0.0,-100.00,ENE,60,11.0,20.0,17,-99.99,,,-99.99,,2013-02-25 16:41:00,
2013-02-25 08:51:00,42.0,0.0,-100.00,ENE,59,7.0,19.0,17,-99.99,,,-99.99,,2013-02-25 16:51:00,
2013-02-25 09:01:00,43.0,0.0,-100.00,NE,34,4.0,12.0,16,-99.99,,,-99.99,,2013-02-25 17:01:00,
2013-02-25 09:11:00,43.0,1.0,-100.00,ENE,66,5.0,13.0,17,-99.99,,,-99.99,,2013-02-25 17:11:00,
2013-02-25 09:21:00,43.0,0.0,-100.00,ENE,60,8.0,16.0,16,-99.99,,,-99.99,,2013-02-25 17:21:00,
2013-02-25 09:31:00,43.0,1.0,-100.00,ENE,58,9.0,14.0,17,-99.99,,,-99.99,,2013-02-25 17:31:00,
2013-02-25 09:41:00,44.0,2.0,-100.00,NE,48,4.0,11.0,17,-99.99,,,-99.99,,2013-02-25 17:41:00,
2013-02-25 09:52:00,44.0,3.0,-100.00,NE,54,5.0,14.0,18,-99.99,,,-99.99,,2013-02-25 17:52:00,
2013-02-25 10:01:00,44.0,3.0,-100.00,ENE,68,7.0,12.0,18,-99.99,,,-99.99,,2013-02-25 18:01:00,
2013-02-25 10:12:00,45.0,5.0,-100.00,NE,46,5.0,12.0,19,-99.99,,,-99.99,,2013-02-25 18:12:00,
2013-02-25 10:21:00,45.0,4.0,-100.00,ENE,63,5.0,10.0,18,-99.99,,,-99.99,,2013-02-25 18:21:00,
2013-02-25 10:32:00,47.0,4.0,-100.00,NE,54,4.0,8.0,17,-99.99,,,-99.99,,2013-02-25 18:32:00,
2013-02-25 10:41:00,48.0,3.0,-100.00,NE,50,3.0,7.0,15,-99.99,,,-99.99,,2013-02-25 18:41:00,
2013-02-25 10:51:00,48.0,1.0,-100.00,NW,326,4.0,10.0,14,-99.99,,,-99.99,,2013-02-25 18:51:00,
2013-02-25 11:01:00,48.0,4.0,-100.00,NNE,27,5.0,10.0,16,-99.99,,,-99.99,,2013-02-25 19:01:00,
2013-02-25 11:11:00,48.0,4.0,-100.00,NNE,26,4.0,8.0,16,-99.99,,,-99.99,,2013-02-25 19:11:00,
2013-02-25 11:21:00,50.0,4.0,-100.00,NE,54,1.0,4.0,15,-99.99,,,-99.99,,2013-02-25 19:21:00,
2013-02-25 11:31:00,52.0,4.0,-100.00,South,171,3.0,7.0,14,-99.99,,,-99.99,,2013-02-25 19:31:00,
2013-02-25 11:41:00,51.0,4.0,-100.00,WSW,250,6.0,12.0,14,-99.99,,,-99.99,,2013-02-25 19:41:00,
2013-02-25 11:52:00,50.0,3.0,-100.00,WSW,251,6.0,11.0,14,-99.99,,,-99.99,,2013-02-25 19:52:00,
2013-02-25 12:01:00,50.0,4.0,-100.00,WSW,250,6.0,12.0,15,-99.99,,,-99.99,,2013-02-25 20:01:00,
2013-02-25 12:11:00,51.0,8.0,-100.00,West,262,7.0,14.0,17,-99.99,,,-99.99,,2013-02-25 20:11:00,
2013-02-25 12:21:00,51.0,8.0,-100.00,WSW,238,8.0,15.0,17,-99.99,,,-99.99,,2013-02-25 20:21:00,
2013-02-25 12:31:00,51.0,8.0,-100.00,WSW,243,8.0,14.0,17,-99.99,,,-99.99,,2013-02-25 20:31:00,
2013-02-25 12:41:00,51.0,8.0,-100.00,WSW,255,11.0,17.0,17,-99.99,,,-99.99,,2013-02-25 20:41:00,
2013-02-25 12:52:00,51.0,8.0,-100.00,WSW,243,10.0,17.0,17,-99.99,,,-99.99,,2013-02-25 20:52:00,
2013-02-25 13:01:00,51.0,8.0,-100.00,WSW,253,11.0,15.0,17,-99.99,,,-99.99,,2013-02-25 21:01:00,
2013-02-25 13:11:00,51.0,8.0,-100.00,WSW,251,10.0,14.0,17,-99.99,,,-99.99,,2013-02-25 21:11:00,
2013-02-25 13:21:00,51.0,8.0,-100.00,WSW,250,8.0,13.0,17,-99.99,,,-99.99,,2013-02-25 21:21:00,
2013-02-25 13:31:00,52.0,10.0,-100.00,SW,228,9.0,14.0,18,-99.99,,,-99.99,,2013-02-25 21:31:00,
2013-02-25 13:41:00,52.0,10.0,-100.00,WSW,247,9.0,16.0,18,-99.99,,,-99.99,,2013-02-25 21:41:00,
2013-02-25 13:51:00,51.0,9.0,-100.00,WSW,244,9.0,15.0,18,-99.99,,,-99.99,,2013-02-25 21:51:00,
2013-02-25 14:01:00,52.0,11.0,-100.00,WSW,243,9.0,15.0,19,-99.99,,,-99.99,,2013-02-25 22:01:00,
2013-02-25 14:11:00,52.0,11.0,-100.00,WSW,240,10.0,15.0,19,-99.99,,,-99.99,,2013-02-25 22:11:00,
2013-02-25 14:21:00,52.0,11.0,-100.00,WSW,251,13.0,18.0,19,-99.99,,,-99.99,,2013-02-25 22:21:00,
2013-02-25 14:31:00,52.0,11.0,-100.00,WSW,246,11.0,16.0,19,-99.99,,,-99.99,,2013-02-25 22:31:00,
2013-02-25 14:41:00,53.0,11.0,-100.00,West,275,9.0,16.0,18,-99.99,,,-99.99,,2013-02-25 22:41:00,
2013-02-25 14:51:00,52.0,11.0,-100.00,WNW,285,9.0,15.0,19,-99.99,,,-99.99,,2013-02-25 22:51:00,
2013-02-25 15:01:00,53.0,12.0,-100.00,West,275,9.0,16.0,19,-99.99,,,-99.99,,2013-02-25 23:01:00,
2013-02-25 15:11:00,52.0,12.0,-100.00,West,267,11.0,18.0,20,-99.99,,,-99.99,,2013-02-25 23:11:00,
2013-02-25 15:21:00,52.0,12.0,-100.00,WNW,289,9.0,14.0,20,-99.99,,,-99.99,,2013-02-25 23:21:00,
2013-02-25 15:31:00,52.0,13.0,-100.00,WNW,292,10.0,17.0,21,-99.99,,,-99.99,,2013-02-25 23:31:00,
2013-02-25 15:41:00,52.0,14.0,-100.00,West,281,10.0,14.0,22,-99.99,,,-99.99,,2013-02-25 23:41:00,
2013-02-25 15:52:00,51.0,14.0,-100.00,WNW,286,10.0,15.0,22,-99.99,,,-99.99,,2013-02-25 23:52:00,
2013-02-25 16:01:00,51.0,14.0,-100.00,West,270,11.0,17.0,22,-99.99,,,-99.99,,2013-02-26 00:01:00,
2013-02-25 16:11:00,51.0,14.0,-100.00,West,279,10.0,19.0,22,-99.99,,,-99.99,,2013-02-26 00:11:00,
2013-02-25 16:21:00,51.0,15.0,-100.00,West,275,10.0,17.0,23,-99.99,,,-99.99,,2013-02-26 00:21:00,
2013-02-25 16:32:00,50.0,14.0,-100.00,WSW,252,11.0,15.0,23,-99.99,,,-99.99,,2013-02-26 00:32:00,
2013-02-25 16:41:00,50.0,15.0,-100.00,WSW,242,11.0,15.0,24,-99.99,,,-99.99,,2013-02-26 00:41:00,
2013-02-25 16:51:00,49.0,14.0,-100.00,WSW,258,13.0,18.0,24,-99.99,,,-99.99,,2013-02-26 00:51:00,
2013-02-25 17:01:00,49.0,15.0,-100.00,WSW,254,13.0,16.0,25,-99.99,,,-99.99,,2013-02-26 01:01:00,
2013-02-25 17:11:00,48.0,16.0,-100.00,West,259,14.0,20.0,27,-99.99,,,-99.99,,2013-02-26 01:11:00,
2013-02-25 17:21:00,47.0,17.0,-100.00,WSW,254,11.0,14.0,30,-99.99,,,-99.99,,2013-02-26 01:21:00,
2013-02-25 17:31:00,46.0,18.0,-100.00,WSW,257,11.0,15.0,32,-99.99,,,-99.99,,2013-02-26 01:31:00,
2013-02-25 17:41:00,46.0,19.0,-100.00,WSW,256,8.0,13.0,33,-99.99,,,-99.99,,2013-02-26 01:41:00,
2013-02-25 17:51:00,46.0,19.0,-100.00,WNW,283,5.0,9.0,33,-99.99,,,-99.99,,2013-02-26 01:51:00,
2013-02-25 18:01:00,45.0,18.0,-100.00,WNW,288,6.0,9.0,33,-99.99,,,-99.99,,2013-02-26 02:01:00,
2013-02-25 18:11:00,43.0,17.0,-100.00,West,281,5.0,9.0,34,-99.99,,,-99.99,,2013-02-26 02:11:00,
2013-02-25 18:21:00,42.0,17.0,-100.00,WSW,246,2.0,5.0,36,-99.99,,,-99.99,,2013-02-26 02:21:00,
2013-02-25 18:31:00,41.0,17.0,-100.00,West,274,3.0,4.0,37,-99.99,,,-99.99,,2013-02-26 02:31:00,
2013-02-25 18:41:00,41.0,17.0,-100.00,West,259,1.0,4.0,38,-99.99,,,-99.99,,2013-02-26 02:41:00,
2013-02-25 18:52:00,41.0,17.0,-100.00,WNW,283,2.0,5.0,38,-99.99,,,-99.99,,2013-02-26 02:52:00,
2013-02-25 19:01:00,40.0,18.0,-100.00,ESE,114,2.0,3.0,40,-99.99,,,-99.99,,2013-02-26 03:01:00,
2013-02-25 19:11:00,40.0,17.0,-100.00,North,4,2.0,5.0,39,-99.99,,,-99.99,,2013-02-26 03:11:00,
2013-02-25 19:21:00,39.0,17.0,-100.00,SSE,151,2.0,4.0,41,-99.99,,,-99.99,,2013-02-26 03:21:00,
2013-02-25 19:31:00,39.0,17.0,-100.00,ESE,115,1.0,3.0,41,-99.99,,,-99.99,,2013-02-26 03:31:00,
2013-02-25 19:41:00,39.0,17.0,-100.00,South,186,1.0,3.0,40,-99.99,,,-99.99,,2013-02-26 03:41:00,
2013-02-25 19:51:00,38.0,15.0,-100.00,ESE,103,2.0,3.0,39,-99.99,,,-99.99,,2013-02-26 03:51:00,
2013-02-25 20:01:00,39.0,16.0,-100.00,ENE,75,2.0,4.0,38,-99.99,,,-99.99,,2013-02-26 04:01:00,
2013-02-25 20:11:00,39.0,14.0,-100.00,NE,55,2.0,6.0,35,-99.99,,,-99.99,,2013-02-26 04:11:00,
2013-02-25 20:21:00,39.0,13.0,-100.00,East,82,2.0,5.0,34,-99.99,,,-99.99,,2013-02-26 04:21:00,
2013-02-25 20:31:00,39.0,12.0,-100.00,NE,55,2.0,4.0,33,-99.99,,,-99.99,,2013-02-26 04:31:00,
2013-02-25 20:42:00,40.0,12.0,-100.00,SSW,212,3.0,5.0,31,-99.99,,,-99.99,,2013-02-26 04:42:00,
2013-02-25 20:51:00,40.0,12.0,-100.00,SSE,153,2.0,6.0,31,-99.99,,,-99.99,,2013-02-26 04:51:00,
2013-02-25 21:01:00,40.0,13.0,-100.00,South,190,1.0,3.0,32,-99.99,,,-99.99,,2013-02-26 05:01:00,
2013-02-25 21:11:00,39.0,11.0,-100.00,East,101,2.0,5.0,31,-99.99,,,-99.99,,2013-02-26 05:11:00,
2013-02-25 21:21:00,39.0,11.0,-100.00,SSW,204,3.0,9.0,31,-99.99,,,-99.99,,2013-02-26 05:21:00,
2013-02-25 21:31:00,39.0,10.0,-100.00,SW,226,1.0,6.0,30,-99.99,,,-99.99,,2013-02-26 05:31:00,
2013-02-25 21:42:00,39.0,11.0,-100.00,SSW,203,1.0,4.0,31,-99.99,,,-99.99,,2013-02-26 05:42:00,
2013-02-25 21:52:00,39.0,10.0,-100.00,WSW,248,1.0,7.0,30,-99.99,,,-99.99,,2013-02-26 05:52:00,
2013-02-25 22:01:00,39.0,9.0,-100.00,West,266,2.0,6.0,29,-99.99,,,-99.99,,2013-02-26 06:01:00,
2013-02-25 22:11:00,39.0,9.0,-100.00,SSW,201,2.0,6.0,28,-99.99,,,-99.99,,2013-02-26 06:11:00,
2013-02-25 22:21:00,39.0,8.0,-100.00,SW,225,3.0,6.0,27,-99.99,,,-99.99,,2013-02-26 06:21:00,
2013-02-25 22:31:00,38.0,8.0,-100.00,ENE,72,3.0,6.0,28,-99.99,,,-99.99,,2013-02-26 06:31:00,
2013-02-25 22:41:00,38.0,8.0,-100.00,ENE,72,3.0,6.0,28,-99.99,,,-99.99,,2013-02-26 06:41:00,
2013-02-25 22:51:00,38.0,9.0,-100.00,ENE,67,4.0,5.0,29,-99.99,,,-99.99,,2013-02-26 06:51:00,
2013-02-25 23:01:00,39.0,9.0,-100.00,NE,55,3.0,6.0,28,-99.99,,,-99.99,,2013-02-26 07:01:00,
2013-02-25 23:11:00,39.0,8.0,-100.00,NW,306,1.0,4.0,27,-99.99,,,-99.99,,2013-02-26 07:11:00,
2013-02-25 23:22:00,40.0,8.0,-100.00,ESE,103,3.0,6.0,26,-99.99,,,-99.99,,2013-02-26 07:22:00,
2013-02-25 23:31:00,40.0,7.0,-100.00,ENE,75,3.0,5.0,25,-99.99,,,-99.99,,2013-02-26 07:31:00,
2013-02-25 23:41:00,40.0,6.0,-100.00,East,92,2.0,11.0,24,-99.99,,,-99.99,,2013-02-26 07:41:00,
2013-02-25 23:51:00,40.0,7.0,-100.00,SE,133,4.0,8.0,25,-99.99,,,-99.99,,2013-02-26 07:51:00,